Regional Weather Roundup
Issued by NWS Goodland, KS

Home | Current Version | Previous Version | Graphics & Text | Print | Product List | Glossary On
Versions: 1 2 3 4 5 6 7 8 9 10 11 12 13 14 15 16 17 18 19 20 21 22 23 24 25 26 27 28 29 30 31 32 33 34 35 36 37 38 39 40 41 42 43 44 45 46 47 48 49 50
000
ASUS43 KGLD 242359
RWRGLD

GOODLAND FORECAST AREA HOURLY WEATHER ROUNDUP
NATIONAL WEATHER SERVICE GOODLAND KS
500 PM MST WED DEC 24 2014

...OFFICIAL OBSERVATIONS...

CITY           SKY/WX    TMP DP  RH WIND       PRES   REMARKS
GOODLAND KS    PTCLDY    38  19  46 SW16      29.68F
HILL CITY KS   FAIR      39  14  36 S6        29.73F
IMPERIAL NEB   PTCLDY    35  24  64 SW5       29.63F
MCCOOK NEB     PTCLDY    38  23  55 SW9       29.67F
AKRON CO       MOCLDY    36  24  62 S9        29.62F
BURLINGTON CO  PTCLDY    35  19  52 S15       29.67F
LIMON CO       CLOUDY    36  15  42 S10       29.66F
$$

...UNOFFICIAL OBSERVATIONS...

CITY           SKY/WX    TMP DP  RH WIND       PRES   REMARKS
COLBY KS       CLEAR     37  27  65 S10       29.70F
GOVE KS          N/A     39  32  76 MISG        N/A
NORTON KS      CLEAR     36  19  51 S8        29.69F
SHARON SPRINGS   N/A     35  16  46 SW10        N/A
TRIBUNE KS     CLEAR     34  18  51 S10       29.74F
KIT CARSON CO    N/A     34  18  52 MISG        N/A
YUMA CO          N/A     36  26  65 CALM        N/A
$$


USA.gov is the U.S. government's official web portal to all federal, state and local government web resources and services.